Tabellarische Ansicht des 20.6.2022


Die einzelnen Werte des Tages

Uhrzeit Temperatur Luftdruck Luftfeuchte Wind Hi-Wind Taupunkt THW Index Wind Chill Heat Index Solar- strahlung Regen

00:00

13.8 C

1009.4 hpa

87 %

0.0 km/h aus 116

0.0 km/h aus ---

11.7 C

13.8 C

13.8 C

13.8 C

0 W/m

0.00 mm

00:05

13.8 C

1009.4 hpa

87 %

0.0 km/h aus 116

0.0 km/h aus ---

11.7 C

13.8 C

13.8 C

13.8 C

0 W/m

0.00 mm

00:10

13.7 C

1009.4 hpa

87 %

0.0 km/h aus 113

0.0 km/h aus ---

11.6 C

13.7 C

13.7 C

13.7 C

0 W/m

0.00 mm

00:15

13.7 C

1009.4 hpa

87 %

0.0 km/h aus 116

0.0 km/h aus ---

11.6 C

13.7 C

13.7 C

13.7 C

0 W/m

0.00 mm

00:20

13.7 C

1009.4 hpa

87 %

0.0 km/h aus 116

0.0 km/h aus ---

11.6 C

13.7 C

13.7 C

13.7 C

0 W/m

0.00 mm

00:25

13.7 C

1009.4 hpa

87 %

0.0 km/h aus 117

0.0 km/h aus ---

11.5 C

13.7 C

13.7 C

13.7 C

0 W/m

0.00 mm

00:30

13.7 C

1009.4 hpa

87 %

0.0 km/h aus 117

0.0 km/h aus ---

11.5 C

13.7 C

13.7 C

13.7 C

0 W/m

0.00 mm

00:35

13.6 C

1009.4 hpa

88 %

0.0 km/h aus 113

4.8 km/h aus NW

11.7 C

13.6 C

13.6 C

13.6 C

0 W/m

0.00 mm

00:40

13.6 C

1009.4 hpa

88 %

1.6 km/h aus 116

8.0 km/h aus NW

11.7 C

13.6 C

13.6 C

13.6 C

0 W/m

0.00 mm

00:45

13.6 C

1009.4 hpa

88 %

3.2 km/h aus 116

9.7 km/h aus NW

11.7 C

13.6 C

13.6 C

13.6 C

0 W/m

0.00 mm

00:50

13.6 C

1009.4 hpa

88 %

1.6 km/h aus 117

11.3 km/h aus NW

11.6 C

13.6 C

13.6 C

13.6 C

0 W/m

0.25 mm

00:55

13.6 C

1009.4 hpa

88 %

3.2 km/h aus 116

9.7 km/h aus NW

11.6 C

13.6 C

13.6 C

13.6 C

0 W/m

0.00 mm

01:00

13.5 C

1010.0 hpa

88 %

3.2 km/h aus 114

8.0 km/h aus WNW

11.6 C

13.5 C

13.5 C

13.5 C

0 W/m

0.00 mm

01:05

13.4 C

1010.0 hpa

88 %

3.2 km/h aus 117

11.3 km/h aus WNW

11.5 C

13.4 C

13.4 C

13.4 C

0 W/m

0.00 mm

01:10

13.4 C

1010.0 hpa

88 %

0.0 km/h aus 117

0.0 km/h aus ---

11.5 C

13.4 C

13.4 C

13.4 C

0 W/m

0.00 mm

01:15

13.4 C

1009.6 hpa

88 %

1.6 km/h aus 116

8.0 km/h aus NNW

11.4 C

13.4 C

13.4 C

13.4 C

0 W/m

0.00 mm

01:20

13.3 C

1009.6 hpa

88 %

1.6 km/h aus 116

8.0 km/h aus WNW

11.4 C

13.3 C

13.3 C

13.3 C

0 W/m

0.00 mm

01:25

13.3 C

1009.6 hpa

88 %

1.6 km/h aus 114

8.0 km/h aus WNW

11.4 C

13.3 C

13.3 C

13.3 C

0 W/m

0.00 mm

01:30

13.3 C

1010.7 hpa

88 %

3.2 km/h aus 116

9.7 km/h aus NW

11.3 C

13.3 C

13.3 C

13.3 C

0 W/m

0.00 mm

01:35

13.3 C

1010.7 hpa

88 %

4.8 km/h aus 116

9.7 km/h aus WNW

11.3 C

13.3 C

13.3 C

13.3 C

0 W/m

0.00 mm

01:40

13.2 C

1010.7 hpa

88 %

3.2 km/h aus 117

9.7 km/h aus WNW

11.3 C

13.2 C

13.2 C

13.2 C

0 W/m

0.00 mm

01:45

13.2 C

1010.2 hpa

88 %

1.6 km/h aus 116

6.4 km/h aus W

11.2 C

13.2 C

13.2 C

13.2 C

0 W/m

0.00 mm

01:50

13.1 C

1010.2 hpa

88 %

0.0 km/h aus 114

0.0 km/h aus ---

11.2 C

13.1 C

13.1 C

13.1 C

0 W/m

0.00 mm

01:55

13.1 C

1010.2 hpa

88 %

3.2 km/h aus 117

9.7 km/h aus NNE

11.2 C

13.1 C

13.1 C

13.1 C

0 W/m

0.00 mm

02:00

13.1 C

1009.1 hpa

89 %

0.0 km/h aus 118

0.0 km/h aus ---

11.3 C

13.1 C

13.1 C

13.1 C

0 W/m

0.00 mm

02:05

13.0 C

1009.1 hpa

89 %

0.0 km/h aus 117

0.0 km/h aus ---

11.2 C

13.1 C

13.0 C

13.1 C

0 W/m

0.25 mm

02:10

13.0 C

1009.1 hpa

89 %

0.0 km/h aus 115

0.0 km/h aus ---

11.2 C

13.1 C

13.0 C

13.1 C

0 W/m

0.00 mm

02:15

13.0 C

1009.8 hpa

89 %

0.0 km/h aus 113

0.0 km/h aus ---

11.2 C

13.1 C

13.0 C

13.1 C

0 W/m

0.00 mm

02:20

13.0 C

1009.8 hpa

89 %

0.0 km/h aus 116

0.0 km/h aus ---

11.2 C

13.1 C

13.0 C

13.1 C

0 W/m

0.00 mm

02:25

12.9 C

1009.8 hpa

89 %

0.0 km/h aus 115

0.0 km/h aus ---

11.2 C

13.0 C

12.9 C

13.0 C

0 W/m

0.00 mm

02:30

12.9 C

1009.1 hpa

89 %

0.0 km/h aus 116

0.0 km/h aus ---

11.2 C

13.0 C

12.9 C

13.0 C

0 W/m

0.00 mm

02:35

12.9 C

1009.1 hpa

89 %

0.0 km/h aus 115

0.0 km/h aus ---

11.1 C

12.9 C

12.9 C

12.9 C

0 W/m

0.00 mm

02:40

12.9 C

1009.1 hpa

89 %

0.0 km/h aus 115

0.0 km/h aus ---

11.1 C

12.9 C

12.9 C

12.9 C

0 W/m

0.00 mm

02:45

12.8 C

1009.1 hpa

89 %

0.0 km/h aus 116

0.0 km/h aus ---

11.1 C

12.9 C

12.8 C

12.9 C

0 W/m

0.00 mm

02:50

12.8 C

1009.1 hpa

89 %

0.0 km/h aus 117

0.0 km/h aus ---

11.1 C

12.9 C

12.8 C

12.9 C

0 W/m

0.00 mm

02:55

12.8 C

1009.1 hpa

89 %

0.0 km/h aus 117

0.0 km/h aus ---

11.1 C

12.9 C

12.8 C

12.9 C

0 W/m

0.00 mm

03:00

12.8 C

1009.1 hpa

89 %

0.0 km/h aus 115

0.0 km/h aus ---

11.0 C

12.8 C

12.8 C

12.8 C

0 W/m

0.00 mm

03:05

12.8 C

1009.1 hpa

89 %

0.0 km/h aus 116

0.0 km/h aus ---

11.0 C

12.8 C

12.8 C

12.8 C

0 W/m

0.00 mm

03:10

12.8 C

1009.1 hpa

89 %

0.0 km/h aus 117

0.0 km/h aus ---

11.0 C

12.8 C

12.8 C

12.8 C

0 W/m

0.00 mm

03:15

12.8 C

1009.5 hpa

90 %

0.0 km/h aus 117

4.8 km/h aus N

11.2 C

12.8 C

12.8 C

12.8 C

0 W/m

0.00 mm

03:20

12.8 C

1009.5 hpa

90 %

0.0 km/h aus 117

0.0 km/h aus ---

11.2 C

12.9 C

12.8 C

12.9 C

0 W/m

0.00 mm

03:25

12.8 C

1009.5 hpa

90 %

0.0 km/h aus 114

4.8 km/h aus WNW

11.2 C

12.9 C

12.8 C

12.9 C

0 W/m

0.00 mm

03:30

12.8 C

1008.3 hpa

90 %

3.2 km/h aus 115

9.7 km/h aus NNE

11.2 C

12.9 C

12.8 C

12.9 C

0 W/m

0.00 mm

03:35

12.8 C

1008.3 hpa

90 %

1.6 km/h aus 117

6.4 km/h aus WNW

11.2 C

12.8 C

12.8 C

12.8 C

0 W/m

0.00 mm

03:40

12.8 C

1008.3 hpa

90 %

0.0 km/h aus 116

0.0 km/h aus ---

11.2 C

12.8 C

12.8 C

12.8 C

0 W/m

0.00 mm

03:45

12.7 C

1009.1 hpa

90 %

0.0 km/h aus 117

0.0 km/h aus ---

11.1 C

12.8 C

12.7 C

12.8 C

0 W/m

0.00 mm

03:50

12.7 C

1009.1 hpa

90 %

0.0 km/h aus 115

0.0 km/h aus ---

11.1 C

12.7 C

12.7 C

12.7 C

0 W/m

0.00 mm

03:55

12.7 C

1009.1 hpa

90 %

0.0 km/h aus 115

0.0 km/h aus ---

11.1 C

12.7 C

12.7 C

12.7 C

0 W/m

0.00 mm

04:00

12.6 C

1009.1 hpa

90 %

0.0 km/h aus 117

0.0 km/h aus ---

11.0 C

12.7 C

12.6 C

12.7 C

0 W/m

0.00 mm

04:05

12.6 C

1009.1 hpa

90 %

0.0 km/h aus 116

0.0 km/h aus ---

11.0 C

12.6 C

12.6 C

12.6 C

0 W/m

0.00 mm

04:10

12.5 C

1009.1 hpa

90 %

0.0 km/h aus 118

0.0 km/h aus ---

10.9 C

12.6 C

12.5 C

12.6 C

0 W/m

0.00 mm

04:15

12.4 C

1009.1 hpa

90 %

0.0 km/h aus 114

0.0 km/h aus ---

10.8 C

12.5 C

12.4 C

12.5 C

0 W/m

0.00 mm

04:20

12.4 C

1009.1 hpa

90 %

0.0 km/h aus 115

0.0 km/h aus ---

10.8 C

12.5 C

12.4 C

12.5 C

0 W/m

0.00 mm

04:25

12.4 C

1009.1 hpa

90 %

0.0 km/h aus 116

0.0 km/h aus ---

10.8 C

12.4 C

12.4 C

12.4 C

0 W/m

0.00 mm

04:30

12.3 C

1010.0 hpa

90 %

0.0 km/h aus 117

0.0 km/h aus ---

10.7 C

12.4 C

12.3 C

12.4 C

0 W/m

0.00 mm

04:35

12.3 C

1010.0 hpa

90 %

0.0 km/h aus 117

0.0 km/h aus ---

10.7 C

12.3 C

12.3 C

12.3 C

0 W/m

0.00 mm

04:40

12.3 C

1010.0 hpa

90 %

0.0 km/h aus 116

0.0 km/h aus ---

10.7 C

12.3 C

12.3 C

12.3 C

0 W/m

0.00 mm

04:45

12.2 C

1009.9 hpa

90 %

0.0 km/h aus 114

0.0 km/h aus ---

10.6 C

12.3 C

12.2 C

12.3 C

0 W/m

0.00 mm

04:50

12.2 C

1009.9 hpa

90 %

0.0 km/h aus 117

0.0 km/h aus ---

10.6 C

12.3 C

12.2 C

12.3 C

0 W/m

0.00 mm

04:55

12.2 C

1009.9 hpa

90 %

0.0 km/h aus 116

0.0 km/h aus ---

10.6 C

12.3 C

12.2 C

12.3 C

1 W/m

0.00 mm

05:00

12.2 C

1010.4 hpa

90 %

1.6 km/h aus 117

4.8 km/h aus W

10.6 C

12.2 C

12.2 C

12.2 C

0 W/m

0.00 mm

05:05

12.2 C

1010.4 hpa

90 %

1.6 km/h aus 114

6.4 km/h aus W

10.6 C

12.2 C

12.2 C

12.2 C

0 W/m

0.00 mm

05:10

12.2 C

1010.4 hpa

90 %

1.6 km/h aus 114

8.0 km/h aus W

10.6 C

12.2 C

12.2 C

12.2 C

0 W/m

0.00 mm

05:15

12.2 C

1010.6 hpa

90 %

3.2 km/h aus 117

8.0 km/h aus WSW

10.6 C

12.2 C

12.2 C

12.2 C

0 W/m

0.00 mm

05:20

12.1 C

1010.6 hpa

90 %

3.2 km/h aus 117

8.0 km/h aus W

10.5 C

12.2 C

12.1 C

12.2 C

3 W/m

0.00 mm

05:25

12.1 C

1010.6 hpa

90 %

3.2 km/h aus 117

4.8 km/h aus W

10.5 C

12.2 C

12.1 C

12.2 C

5 W/m

0.00 mm

05:30

12.1 C

1010.2 hpa

90 %

3.2 km/h aus 115

6.4 km/h aus W

10.5 C

12.2 C

12.1 C

12.2 C

7 W/m

0.00 mm

05:35

12.1 C

1010.2 hpa

90 %

0.0 km/h aus 114

4.8 km/h aus W

10.5 C

12.2 C

12.1 C

12.2 C

8 W/m

0.00 mm

05:40

12.1 C

1010.2 hpa

90 %

0.0 km/h aus 116

0.0 km/h aus ---

10.5 C

12.1 C

12.1 C

12.1 C

8 W/m

0.00 mm

05:45

12.1 C

1009.9 hpa

90 %

0.0 km/h aus 116

0.0 km/h aus ---

10.5 C

12.1 C

12.1 C

12.1 C

11 W/m

0.00 mm

05:50

12.1 C

1009.9 hpa

90 %

1.6 km/h aus 116

4.8 km/h aus W

10.5 C

12.1 C

12.1 C

12.1 C

11 W/m

0.00 mm

05:55

12.1 C

1009.9 hpa

90 %

0.0 km/h aus 116

3.2 km/h aus W

10.5 C

12.1 C

12.1 C

12.1 C

12 W/m

0.00 mm

06:00

12.1 C

1009.2 hpa

90 %

3.2 km/h aus 114

6.4 km/h aus W

10.5 C

12.1 C

12.1 C

12.1 C

10 W/m

0.00 mm

06:05

12.0 C

1009.2 hpa

90 %

0.0 km/h aus 115

3.2 km/h aus W

10.4 C

12.1 C

12.0 C

12.1 C

12 W/m

0.00 mm

06:10

12.0 C

1009.2 hpa

90 %

0.0 km/h aus 117

3.2 km/h aus W

10.4 C

12.1 C

12.0 C

12.1 C

13 W/m

0.00 mm

06:15

12.0 C

1008.5 hpa

90 %

0.0 km/h aus 117

0.0 km/h aus ---

10.4 C

12.1 C

12.0 C

12.1 C

15 W/m

0.00 mm

06:20

12.1 C

1008.5 hpa

90 %

0.0 km/h aus 116

0.0 km/h aus ---

10.5 C

12.1 C

12.1 C

12.1 C

19 W/m

0.00 mm

06:25

12.1 C

1008.5 hpa

90 %

0.0 km/h aus 114

4.8 km/h aus WNW

10.5 C

12.1 C

12.1 C

12.1 C

19 W/m

0.00 mm

06:30

12.1 C

1008.0 hpa

91 %

0.0 km/h aus 116

4.8 km/h aus NW

10.7 C

12.2 C

12.1 C

12.2 C

15 W/m

0.00 mm

06:35

12.1 C

1008.0 hpa

91 %

1.6 km/h aus 116

8.0 km/h aus NW

10.7 C

12.2 C

12.1 C

12.2 C

13 W/m

0.00 mm

06:40

12.2 C

1008.0 hpa

91 %

3.2 km/h aus 117

12.9 km/h aus WNW

10.7 C

12.2 C

12.2 C

12.2 C

13 W/m

0.00 mm

06:45

12.1 C

1008.0 hpa

90 %

6.4 km/h aus 116

14.5 km/h aus NW

10.5 C

11.9 C

11.8 C

12.2 C

22 W/m

0.00 mm

06:50

12.1 C

1008.0 hpa

90 %

3.2 km/h aus 115

9.7 km/h aus NW

10.5 C

12.1 C

12.1 C

12.1 C

49 W/m

0.00 mm

06:55

12.1 C

1008.0 hpa

90 %

3.2 km/h aus 116

9.7 km/h aus WNW

10.5 C

12.1 C

12.1 C

12.1 C

86 W/m

0.00 mm

07:00

12.1 C

1008.0 hpa

90 %

4.8 km/h aus 117

11.3 km/h aus NW

10.5 C

12.1 C

12.1 C

12.1 C

101 W/m

0.00 mm

07:05

12.1 C

1008.0 hpa

90 %

3.2 km/h aus 117

8.0 km/h aus WNW

10.5 C

12.2 C

12.1 C

12.2 C

114 W/m

0.00 mm

07:10

12.1 C

1008.0 hpa

90 %

6.4 km/h aus 116

14.5 km/h aus NNW

10.5 C

11.9 C

11.8 C

12.2 C

95 W/m

0.00 mm

07:15

12.1 C

1008.1 hpa

90 %

4.8 km/h aus 115

9.7 km/h aus NNW

10.5 C

12.2 C

12.1 C

12.2 C

86 W/m

0.00 mm

07:20

12.1 C

1008.1 hpa

90 %

3.2 km/h aus 117

11.3 km/h aus NW

10.5 C

12.2 C

12.1 C

12.2 C

89 W/m

0.00 mm

07:25

12.1 C

1008.1 hpa

90 %

1.6 km/h aus 116

8.0 km/h aus NW

10.5 C

12.2 C

12.1 C

12.2 C

72 W/m

0.00 mm

07:30

12.1 C

1008.7 hpa

90 %

0.0 km/h aus 116

0.0 km/h aus ---

10.5 C

12.2 C

12.1 C

12.2 C

82 W/m

0.00 mm

07:35

12.2 C

1008.7 hpa

90 %

0.0 km/h aus 117

1.6 km/h aus WNW

10.6 C

12.3 C

12.2 C

12.3 C

97 W/m

0.00 mm

07:40

12.2 C

1008.7 hpa

90 %

0.0 km/h aus 114

0.0 km/h aus ---

10.6 C

12.3 C

12.2 C

12.3 C

103 W/m

0.00 mm

07:45

12.3 C

1009.1 hpa

90 %

0.0 km/h aus 115

0.0 km/h aus ---

10.7 C

12.3 C

12.3 C

12.3 C

120 W/m

0.00 mm

07:50

12.3 C

1009.1 hpa

90 %

0.0 km/h aus 117

0.0 km/h aus ---

10.7 C

12.4 C

12.3 C

12.4 C

140 W/m

0.00 mm

07:55

12.4 C

1009.1 hpa

90 %

1.6 km/h aus 117

6.4 km/h aus W

10.8 C

12.5 C

12.4 C

12.5 C

163 W/m

0.00 mm

08:00

12.5 C

1009.6 hpa

89 %

3.2 km/h aus 116

6.4 km/h aus W

10.7 C

12.6 C

12.5 C

12.6 C

164 W/m

0.00 mm

08:05

12.6 C

1009.6 hpa

89 %

0.0 km/h aus 115

6.4 km/h aus W

10.8 C

12.6 C

12.6 C

12.6 C

155 W/m

0.00 mm

08:10

12.7 C

1009.6 hpa

89 %

3.2 km/h aus 116

8.0 km/h aus W

10.9 C

12.7 C

12.7 C

12.7 C

127 W/m

0.00 mm

08:15

12.7 C

1010.2 hpa

88 %

4.8 km/h aus 117

11.3 km/h aus SSW

10.8 C

12.7 C

12.7 C

12.7 C

123 W/m

0.00 mm

08:20

12.7 C

1010.2 hpa

88 %

6.4 km/h aus 116

14.5 km/h aus SSW

10.8 C

12.5 C

12.5 C

12.7 C

135 W/m

0.00 mm

08:25

12.8 C

1010.2 hpa

88 %

8.0 km/h aus 117

12.9 km/h aus SSW

10.9 C

12.3 C

12.3 C

12.8 C

157 W/m

0.00 mm

08:30

13.2 C

1010.3 hpa

86 %

6.4 km/h aus 114

9.7 km/h aus SSW

10.9 C

12.9 C

13.0 C

13.1 C

212 W/m

0.00 mm

08:35

13.4 C

1010.3 hpa

85 %

4.8 km/h aus 116

11.3 km/h aus SW

11.0 C

13.4 C

13.4 C

13.4 C

284 W/m

0.00 mm

08:40

13.8 C

1010.3 hpa

84 %

4.8 km/h aus 117

16.1 km/h aus SW

11.2 C

13.8 C

13.8 C

13.8 C

287 W/m

0.00 mm

08:45

14.1 C

1010.1 hpa

82 %

1.6 km/h aus 117

8.0 km/h aus SW

11.0 C

13.9 C

14.1 C

13.9 C

321 W/m

0.00 mm

08:50

14.3 C

1010.1 hpa

81 %

3.2 km/h aus 116

9.7 km/h aus W

11.1 C

14.2 C

14.3 C

14.2 C

349 W/m

0.00 mm

08:55

14.4 C

1010.1 hpa

80 %

3.2 km/h aus 114

9.7 km/h aus WSW

11.0 C

14.3 C

14.4 C

14.3 C

356 W/m

0.00 mm

09:00

14.6 C

1009.9 hpa

79 %

1.6 km/h aus 116

8.0 km/h aus WSW

11.0 C

14.4 C

14.6 C

14.4 C

399 W/m

0.00 mm

09:05

14.6 C

1009.9 hpa

78 %

3.2 km/h aus 117

9.7 km/h aus W

10.8 C

14.4 C

14.6 C

14.4 C

251 W/m

0.00 mm

09:10

14.3 C

1009.9 hpa

78 %

3.2 km/h aus 117

9.7 km/h aus WSW

10.5 C

14.2 C

14.3 C

14.2 C

210 W/m

0.00 mm

09:15

14.7 C

1009.6 hpa

79 %

3.2 km/h aus 114

8.0 km/h aus WSW

11.1 C

14.6 C

14.7 C

14.6 C

491 W/m

0.00 mm

09:20

15.1 C

1009.6 hpa

77 %

4.8 km/h aus 114

12.9 km/h aus WNW

11.1 C

14.9 C

15.1 C

14.9 C

386 W/m

0.00 mm

09:25

15.6 C

1009.6 hpa

76 %

3.2 km/h aus 117

8.0 km/h aus WSW

11.3 C

15.4 C

15.6 C

15.4 C

549 W/m

0.00 mm

09:30

16.1 C

1009.6 hpa

75 %

4.8 km/h aus 117

9.7 km/h aus WNW

11.6 C

15.9 C

16.1 C

15.9 C

591 W/m

0.00 mm

09:35

15.9 C

1009.6 hpa

74 %

6.4 km/h aus 115

17.7 km/h aus WNW

11.3 C

15.7 C

15.9 C

15.7 C

247 W/m

0.00 mm

09:40

15.5 C

1009.6 hpa

74 %

3.2 km/h aus 115

11.3 km/h aus WNW

10.9 C

15.3 C

15.5 C

15.3 C

155 W/m

0.00 mm

09:45

15.3 C

1009.6 hpa

75 %

1.6 km/h aus 117

6.4 km/h aus WNW

10.9 C

15.0 C

15.3 C

15.0 C

247 W/m

0.00 mm

09:50

15.4 C

1009.6 hpa

76 %

4.8 km/h aus 115

9.7 km/h aus W

11.2 C

15.2 C

15.4 C

15.2 C

458 W/m

0.00 mm

09:55

15.4 C

1009.6 hpa

75 %

4.8 km/h aus 117

11.3 km/h aus WSW

11.0 C

15.2 C

15.4 C

15.2 C

319 W/m

0.00 mm

10:00

15.9 C

1009.7 hpa

75 %

3.2 km/h aus 114

9.7 km/h aus WSW

11.5 C

15.8 C

15.9 C

15.8 C

489 W/m

0.00 mm

10:05

16.2 C

1009.7 hpa

72 %

4.8 km/h aus 115

9.7 km/h aus WNW

11.1 C

15.9 C

16.2 C

15.9 C

486 W/m

0.00 mm

10:10

15.9 C

1009.7 hpa

74 %

4.8 km/h aus 116

9.7 km/h aus WNW

11.3 C

15.7 C

15.9 C

15.7 C

201 W/m

0.00 mm

10:15

15.8 C

1009.9 hpa

73 %

4.8 km/h aus 117

8.0 km/h aus WNW

10.9 C

15.5 C

15.8 C

15.5 C

222 W/m

0.00 mm

10:20

16.0 C

1009.9 hpa

72 %

4.8 km/h aus 116

9.7 km/h aus W

11.0 C

15.7 C

16.0 C

15.7 C

425 W/m

0.00 mm

10:25

16.8 C

1009.9 hpa

72 %

3.2 km/h aus 115

8.0 km/h aus W

11.8 C

16.7 C

16.8 C

16.7 C

655 W/m

0.00 mm

10:30

16.8 C

1010.0 hpa

68 %

4.8 km/h aus 117

12.9 km/h aus WSW

10.8 C

16.5 C

16.8 C

16.5 C

210 W/m

0.00 mm

10:35

16.4 C

1010.0 hpa

68 %

8.0 km/h aus 117

25.7 km/h aus NW

10.5 C

16.1 C

16.4 C

16.1 C

201 W/m

0.00 mm

10:40

16.1 C

1010.0 hpa

69 %

6.4 km/h aus 116

14.5 km/h aus NW

10.4 C

15.8 C

16.1 C

15.8 C

172 W/m

0.00 mm

10:45

16.0 C

1010.1 hpa

70 %

3.2 km/h aus 115

11.3 km/h aus WNW

10.5 C

15.7 C

16.0 C

15.7 C

176 W/m

0.00 mm

10:50

16.6 C

1010.1 hpa

69 %

4.8 km/h aus 115

8.0 km/h aus WNW

10.8 C

16.2 C

16.6 C

16.2 C

457 W/m

0.00 mm

10:55

16.7 C

1010.1 hpa

66 %

4.8 km/h aus 117

14.5 km/h aus WSW

10.3 C

16.3 C

16.7 C

16.3 C

187 W/m

0.00 mm

11:00

16.7 C

1009.7 hpa

64 %

6.4 km/h aus 117

19.3 km/h aus WSW

9.9 C

16.3 C

16.7 C

16.3 C

532 W/m

0.00 mm

11:05

17.6 C

1009.7 hpa

62 %

6.4 km/h aus 116

17.7 km/h aus W

10.2 C

17.1 C

17.6 C

17.1 C

663 W/m

0.00 mm

11:10

17.6 C

1009.7 hpa

63 %

6.4 km/h aus 114

20.9 km/h aus WNW

10.4 C

17.2 C

17.6 C

17.2 C

225 W/m

0.00 mm

11:15

17.1 C

1009.8 hpa

63 %

6.4 km/h aus 117

22.5 km/h aus NW

10.0 C

16.6 C

17.1 C

16.6 C

212 W/m

0.00 mm

11:20

17.0 C

1009.8 hpa

62 %

9.7 km/h aus 117

20.9 km/h aus W

9.7 C

16.5 C

17.0 C

16.5 C

283 W/m

0.00 mm

11:25

18.1 C

1009.8 hpa

61 %

4.8 km/h aus 116

20.9 km/h aus WNW

10.4 C

17.6 C

18.1 C

17.6 C

663 W/m

0.00 mm

11:30

18.2 C

1009.9 hpa

58 %

4.8 km/h aus 115

11.3 km/h aus W

9.8 C

17.7 C

18.2 C

17.7 C

622 W/m

0.00 mm

11:35

18.5 C

1009.9 hpa

59 %

4.8 km/h aus 116

19.3 km/h aus WSW

10.3 C

18.1 C

18.5 C

18.1 C

645 W/m

0.00 mm

11:40

18.6 C

1009.9 hpa

55 %

8.0 km/h aus 117

22.5 km/h aus WNW

9.3 C

17.9 C

18.6 C

17.9 C

437 W/m

0.00 mm

11:45

18.1 C

1009.8 hpa

56 %

3.2 km/h aus 116

11.3 km/h aus W

9.2 C

17.4 C

18.1 C

17.4 C

305 W/m

0.00 mm

11:50

17.7 C

1009.8 hpa

58 %

6.4 km/h aus 116

22.5 km/h aus WNW

9.3 C

17.1 C

17.7 C

17.1 C

274 W/m

0.00 mm

11:55

17.4 C

1009.8 hpa

58 %

11.3 km/h aus 115

27.4 km/h aus WSW

9.0 C

16.7 C

17.3 C

16.7 C

339 W/m

0.00 mm

12:00

17.6 C

1009.9 hpa

59 %

6.4 km/h aus 116

11.3 km/h aus NW

9.4 C

16.9 C

17.6 C

16.9 C

331 W/m

0.00 mm

12:05

17.7 C

1009.9 hpa

57 %

6.4 km/h aus 117

20.9 km/h aus WNW

9.0 C

17.0 C

17.7 C

17.0 C

319 W/m

0.00 mm

12:10

17.4 C

1009.9 hpa

57 %

11.3 km/h aus 117

25.7 km/h aus WNW

8.8 C

16.7 C

17.3 C

16.7 C

257 W/m

0.00 mm

12:15

17.4 C

1010.2 hpa

57 %

1.6 km/h aus 114

8.0 km/h aus WNW

8.8 C

16.7 C

17.4 C

16.7 C

306 W/m

0.00 mm

12:20

18.6 C

1010.2 hpa

54 %

8.0 km/h aus 116

22.5 km/h aus WSW

9.1 C

17.9 C

18.6 C

17.9 C

659 W/m

0.00 mm

12:25

18.7 C

1010.2 hpa

54 %

6.4 km/h aus 117

19.3 km/h aus WSW

9.2 C

18.0 C

18.7 C

18.0 C

318 W/m

0.00 mm

12:30

19.1 C

1010.2 hpa

52 %

11.3 km/h aus 117

24.1 km/h aus S

9.0 C

18.4 C

19.1 C

18.4 C

657 W/m

0.00 mm

12:35

19.5 C

1010.2 hpa

51 %

11.3 km/h aus 115

25.7 km/h aus WSW

9.1 C

18.8 C

19.5 C

18.8 C

593 W/m

0.00 mm

12:40

18.7 C

1010.2 hpa

51 %

11.3 km/h aus 115

24.1 km/h aus WSW

8.4 C

17.9 C

18.7 C

17.9 C

280 W/m

0.00 mm

12:45

18.3 C

1010.2 hpa

51 %

12.9 km/h aus 117

32.2 km/h aus W

8.0 C

17.1 C

18.0 C

17.4 C

253 W/m

0.00 mm

12:50

18.4 C

1010.2 hpa

52 %

9.7 km/h aus 117

24.1 km/h aus WNW

8.4 C

17.6 C

18.4 C

17.6 C

509 W/m

0.00 mm

12:55

19.3 C

1010.2 hpa

53 %

4.8 km/h aus 117

17.7 km/h aus W

9.5 C

18.6 C

19.3 C

18.6 C

647 W/m

0.00 mm

13:00

19.8 C

1010.2 hpa

47 %

8.0 km/h aus 114

20.9 km/h aus SW

8.1 C

18.9 C

19.8 C

18.9 C

638 W/m

0.00 mm

13:05

19.9 C

1010.2 hpa

48 %

9.7 km/h aus 116

22.5 km/h aus W

8.5 C

19.1 C

19.9 C

19.1 C

649 W/m

0.00 mm

13:10

20.1 C

1010.2 hpa

48 %

11.3 km/h aus 117

27.4 km/h aus W

8.8 C

19.3 C

20.1 C

19.3 C

638 W/m

0.00 mm

13:15

19.7 C

1010.2 hpa

47 %

12.9 km/h aus 116

22.5 km/h aus NW

8.1 C

18.4 C

19.4 C

18.8 C

257 W/m

0.00 mm

13:20

19.9 C

1010.2 hpa

47 %

9.7 km/h aus 115

22.5 km/h aus SW

8.3 C

19.1 C

19.9 C

19.1 C

641 W/m

0.00 mm

13:25

20.3 C

1010.2 hpa

47 %

8.0 km/h aus 116

22.5 km/h aus W

8.6 C

19.4 C

20.3 C

19.4 C

636 W/m

0.00 mm

13:30

20.4 C

1010.2 hpa

46 %

11.3 km/h aus 117

24.1 km/h aus WSW

8.4 C

19.4 C

20.4 C

19.4 C

643 W/m

0.00 mm

13:35

20.1 C

1010.2 hpa

48 %

8.0 km/h aus 115

17.7 km/h aus SW

8.7 C

19.2 C

20.1 C

19.2 C

333 W/m

0.00 mm

13:40

20.6 C

1010.2 hpa

46 %

14.5 km/h aus 116

30.6 km/h aus SW

8.5 C

18.8 C

19.8 C

19.6 C

661 W/m

0.00 mm

13:45

20.8 C

1010.1 hpa

46 %

14.5 km/h aus 116

30.6 km/h aus WNW

8.8 C

19.0 C

20.1 C

19.8 C

652 W/m

0.00 mm

13:50

20.8 C

1010.1 hpa

47 %

14.5 km/h aus 117

25.7 km/h aus NW

9.0 C

19.0 C

20.0 C

19.8 C

652 W/m

0.00 mm

13:55

20.7 C

1010.1 hpa

46 %

11.3 km/h aus 117

27.4 km/h aus W

8.7 C

19.7 C

20.7 C

19.7 C

655 W/m

0.00 mm

14:00

20.0 C

1010.2 hpa

47 %

8.0 km/h aus 116

25.7 km/h aus W

8.3 C

19.1 C

20.0 C

19.1 C

253 W/m

0.00 mm

14:05

19.3 C

1010.2 hpa

47 %

16.1 km/h aus 115

27.4 km/h aus WSW

7.7 C

17.3 C

18.2 C

18.4 C

251 W/m

0.00 mm

14:10

19.5 C

1010.2 hpa

49 %

11.3 km/h aus 116

25.7 km/h aus WSW

8.5 C

18.7 C

19.5 C

18.7 C

378 W/m

0.00 mm

14:15

19.6 C

1010.2 hpa

48 %

11.3 km/h aus 117

25.7 km/h aus WSW

8.2 C

18.7 C

19.6 C

18.7 C

406 W/m

0.00 mm

14:20

19.5 C

1010.2 hpa

49 %

12.9 km/h aus 117

29.0 km/h aus WNW

8.5 C

18.3 C

19.2 C

18.7 C

373 W/m

0.00 mm

14:25

19.3 C

1010.2 hpa

47 %

11.3 km/h aus 114

24.1 km/h aus WSW

7.7 C

18.3 C

19.3 C

18.3 C

318 W/m

0.00 mm

14:30

20.1 C

1010.2 hpa

48 %

11.3 km/h aus 116

22.5 km/h aus NW

8.7 C

19.2 C

20.1 C

19.2 C

665 W/m

0.00 mm

14:35

19.9 C

1010.2 hpa

49 %

11.3 km/h aus 117

30.6 km/h aus NW

8.9 C

19.1 C

19.9 C

19.1 C

406 W/m

0.00 mm

14:40

19.6 C

1010.2 hpa

49 %

11.3 km/h aus 117

27.4 km/h aus WSW

8.6 C

18.8 C

19.6 C

18.8 C

380 W/m

0.00 mm

14:45

19.4 C

1010.2 hpa

49 %

9.7 km/h aus 116

24.1 km/h aus WNW

8.4 C

18.6 C

19.4 C

18.6 C

275 W/m

0.00 mm

14:50

19.1 C

1010.2 hpa

50 %

9.7 km/h aus 115

24.1 km/h aus WNW

8.4 C

18.2 C

19.1 C

18.2 C

243 W/m

0.00 mm

14:55

18.9 C

1010.2 hpa

51 %

9.7 km/h aus 116

24.1 km/h aus S

8.5 C

18.1 C

18.9 C

18.1 C

284 W/m

0.00 mm

15:00

19.8 C

1010.1 hpa

51 %

8.0 km/h aus 117

20.9 km/h aus WNW

9.4 C

19.2 C

19.8 C

19.2 C

659 W/m

0.00 mm

15:05

20.4 C

1010.1 hpa

50 %

9.7 km/h aus 115

20.9 km/h aus WNW

9.7 C

19.7 C

20.4 C

19.7 C

610 W/m

0.00 mm

15:10

21.2 C

1010.1 hpa

46 %

12.9 km/h aus 114

24.1 km/h aus WNW

9.1 C

19.7 C

20.9 C

20.0 C

643 W/m

0.00 mm

15:15

20.3 C

1010.2 hpa

45 %

16.1 km/h aus 117

29.0 km/h aus SW

8.0 C

18.1 C

19.1 C

19.2 C

294 W/m

0.00 mm

15:20

20.9 C

1010.2 hpa

46 %

14.5 km/h aus 117

30.6 km/h aus WSW

8.8 C

19.0 C

20.1 C

19.8 C

644 W/m

0.00 mm

15:25

21.3 C

1010.2 hpa

44 %

16.1 km/h aus 117

33.8 km/h aus WSW

8.5 C

18.9 C

20.1 C

20.1 C

507 W/m

0.00 mm

15:30

20.8 C

1010.2 hpa

46 %

17.7 km/h aus 113

25.7 km/h aus NNW

8.7 C

18.3 C

19.3 C

19.7 C

527 W/m

0.00 mm

15:35

20.8 C

1010.2 hpa

46 %

12.9 km/h aus 116

25.7 km/h aus WNW

8.7 C

19.4 C

20.4 C

19.7 C

538 W/m

0.00 mm

15:40

20.4 C

1010.2 hpa

47 %

14.5 km/h aus 117

29.0 km/h aus W

8.7 C

18.7 C

19.6 C

19.4 C

353 W/m

0.00 mm

15:45

20.0 C

1010.2 hpa

47 %

14.5 km/h aus 116

25.7 km/h aus WNW

8.3 C

18.3 C

19.2 C

19.1 C

467 W/m

0.00 mm

15:50

19.7 C

1010.2 hpa

47 %

14.5 km/h aus 116

29.0 km/h aus WNW

8.1 C

18.1 C

19.0 C

18.8 C

314 W/m

0.00 mm

15:55

20.3 C

1010.2 hpa

48 %

11.3 km/h aus 115

30.6 km/h aus WNW

8.9 C

19.4 C

20.3 C

19.4 C

510 W/m

0.00 mm

16:00

20.5 C

1010.5 hpa

46 %

14.5 km/h aus 116

27.4 km/h aus S

8.5 C

18.7 C

19.7 C

19.5 C

346 W/m

0.00 mm

16:05

20.0 C

1010.5 hpa

46 %

16.1 km/h aus 117

30.6 km/h aus W

8.0 C

17.9 C

18.8 C

19.1 C

458 W/m

0.00 mm

16:10

20.8 C

1010.5 hpa

43 %

16.1 km/h aus 116

29.0 km/h aus WSW

7.7 C

18.4 C

19.6 C

19.6 C

642 W/m

0.00 mm

16:15

21.1 C

1010.4 hpa

43 %

16.1 km/h aus 115

35.4 km/h aus WNW

8.0 C

18.6 C

19.9 C

19.7 C

607 W/m

0.00 mm

16:20

21.0 C

1010.4 hpa

43 %

14.5 km/h aus 117

30.6 km/h aus WNW

7.9 C

18.9 C

20.2 C

19.7 C

550 W/m

0.00 mm

16:25

20.0 C

1010.4 hpa

45 %

12.9 km/h aus 117

22.5 km/h aus SW

7.7 C

18.6 C

19.6 C

19.0 C

290 W/m

0.00 mm

16:30

19.7 C

1010.5 hpa

48 %

8.0 km/h aus 116

20.9 km/h aus W

8.4 C

18.8 C

19.7 C

18.8 C

286 W/m

0.00 mm

16:35

19.4 C

1010.5 hpa

48 %

11.3 km/h aus 114

29.0 km/h aus WNW

8.1 C

18.5 C

19.4 C

18.5 C

302 W/m

0.00 mm

16:40

19.7 C

1010.5 hpa

48 %

14.5 km/h aus 117

24.1 km/h aus W

8.4 C

18.1 C

19.0 C

18.8 C

285 W/m

0.00 mm

16:45

19.4 C

1010.5 hpa

47 %

17.7 km/h aus 117

30.6 km/h aus W

7.8 C

17.0 C

17.9 C

18.4 C

299 W/m

0.00 mm

16:50

19.3 C

1010.5 hpa

49 %

11.3 km/h aus 116

22.5 km/h aus W

8.3 C

18.4 C

19.3 C

18.4 C

263 W/m

0.00 mm

16:55

19.2 C

1010.5 hpa

49 %

11.3 km/h aus 116

27.4 km/h aus W

8.2 C

18.3 C

19.2 C

18.3 C

282 W/m

0.00 mm

17:00

19.6 C

1010.5 hpa

48 %

16.1 km/h aus 116

29.0 km/h aus WNW

8.3 C

17.6 C

18.5 C

18.7 C

371 W/m

0.00 mm

17:05

19.6 C

1010.5 hpa

47 %

9.7 km/h aus 117

27.4 km/h aus W

7.9 C

18.6 C

19.6 C

18.6 C

377 W/m

0.00 mm

17:10

19.6 C

1010.5 hpa

48 %

9.7 km/h aus 117

25.7 km/h aus WNW

8.3 C

18.7 C

19.6 C

18.7 C

255 W/m

0.00 mm

17:15

19.5 C

1010.4 hpa

47 %

12.9 km/h aus 113

29.0 km/h aus S

7.9 C

18.2 C

19.2 C

18.6 C

322 W/m

0.00 mm

17:20

19.6 C

1010.4 hpa

47 %

16.1 km/h aus 115

30.6 km/h aus W

8.0 C

17.6 C

18.5 C

18.7 C

244 W/m

0.00 mm

17:25

19.3 C

1010.4 hpa

48 %

16.1 km/h aus 117

29.0 km/h aus S

8.0 C

17.2 C

18.2 C

18.3 C

287 W/m

0.00 mm

17:30

19.1 C

1010.6 hpa

49 %

11.3 km/h aus 116

25.7 km/h aus WNW

8.1 C

18.2 C

19.1 C

18.2 C

169 W/m

0.00 mm

17:35

18.9 C

1010.6 hpa

49 %

12.9 km/h aus 115

30.6 km/h aus WNW

7.9 C

17.6 C

18.6 C

17.9 C

124 W/m

0.00 mm

17:40

18.7 C

1010.6 hpa

50 %

11.3 km/h aus 115

24.1 km/h aus W

8.0 C

17.8 C

18.7 C

17.8 C

172 W/m

0.00 mm

17:45

18.7 C

1010.7 hpa

50 %

9.7 km/h aus 117

22.5 km/h aus NW

8.1 C

17.8 C

18.7 C

17.8 C

222 W/m

0.00 mm

17:50

18.7 C

1010.7 hpa

51 %

9.7 km/h aus 117

19.3 km/h aus NW

8.3 C

17.8 C

18.7 C

17.8 C

171 W/m

0.00 mm

17:55

18.7 C

1010.7 hpa

51 %

8.0 km/h aus 118

25.7 km/h aus S

8.4 C

17.9 C

18.7 C

17.9 C

181 W/m

0.00 mm

18:00

18.8 C

1010.7 hpa

50 %

14.5 km/h aus 114

32.2 km/h aus S

8.1 C

17.2 C

18.1 C

17.9 C

252 W/m

0.00 mm

18:05

18.8 C

1010.7 hpa

47 %

14.5 km/h aus 116

29.0 km/h aus WNW

7.3 C

17.1 C

18.1 C

17.8 C

171 W/m

0.00 mm

18:10

18.9 C

1010.7 hpa

48 %

14.5 km/h aus 117

29.0 km/h aus WNW

7.6 C

17.2 C

18.2 C

17.9 C

373 W/m

0.00 mm

18:15

19.1 C

1010.7 hpa

48 %

12.9 km/h aus 117

27.4 km/h aus WSW

7.8 C

17.8 C

18.7 C

18.1 C

221 W/m

0.00 mm

18:20

19.4 C

1010.7 hpa

46 %

12.9 km/h aus 114

32.2 km/h aus WNW

7.5 C

18.1 C

19.1 C

18.4 C

500 W/m

0.00 mm

18:25

19.6 C

1010.7 hpa

45 %

11.3 km/h aus 116

25.7 km/h aus NW

7.3 C

18.5 C

19.6 C

18.5 C

425 W/m

0.00 mm

18:30

19.5 C

1010.8 hpa

46 %

8.0 km/h aus 117

24.1 km/h aus W

7.6 C

18.5 C

19.5 C

18.5 C

392 W/m

0.00 mm

18:35

19.2 C

1010.8 hpa

45 %

16.1 km/h aus 117

33.8 km/h aus S

6.9 C

16.9 C

18.1 C

18.1 C

182 W/m

0.00 mm

18:40

18.9 C

1010.8 hpa

46 %

14.5 km/h aus 116

30.6 km/h aus WNW

7.0 C

17.1 C

18.2 C

17.8 C

83 W/m

0.00 mm

18:45

18.7 C

1011.0 hpa

48 %

11.3 km/h aus 114

27.4 km/h aus NNW

7.5 C

17.7 C

18.7 C

17.7 C

340 W/m

0.00 mm

18:50

18.6 C

1011.0 hpa

48 %

12.9 km/h aus 117

27.4 km/h aus WNW

7.4 C

17.3 C

18.3 C

17.6 C

138 W/m

0.00 mm

18:55

18.4 C

1011.0 hpa

50 %

11.3 km/h aus 116

27.4 km/h aus NW

7.8 C

17.5 C

18.4 C

17.5 C

168 W/m

0.00 mm

19:00

18.3 C

1011.1 hpa

51 %

11.3 km/h aus 118

24.1 km/h aus WNW

8.0 C

17.4 C

18.3 C

17.4 C

156 W/m

0.00 mm

19:05

18.3 C

1011.1 hpa

51 %

12.9 km/h aus 114

33.8 km/h aus NW

8.0 C

17.1 C

18.0 C

17.4 C

98 W/m

0.00 mm

19:10

18.2 C

1011.1 hpa

53 %

12.9 km/h aus 115

29.0 km/h aus WNW

8.5 C

17.1 C

17.9 C

17.4 C

108 W/m

0.00 mm

19:15

18.1 C

1011.2 hpa

53 %

12.9 km/h aus 117

29.0 km/h aus WNW

8.3 C

16.9 C

17.7 C

17.3 C

127 W/m

0.00 mm

19:20

17.9 C

1011.2 hpa

53 %

12.9 km/h aus 117

25.7 km/h aus WNW

8.2 C

16.7 C

17.6 C

17.1 C

114 W/m

0.00 mm

19:25

17.7 C

1011.2 hpa

54 %

14.5 km/h aus 115

27.4 km/h aus WNW

8.3 C

16.1 C

16.8 C

16.9 C

105 W/m

0.00 mm

19:30

17.7 C

1011.2 hpa

55 %

9.7 km/h aus 115

22.5 km/h aus NW

8.5 C

16.9 C

17.7 C

16.9 C

97 W/m

0.00 mm

19:35

17.7 C

1011.2 hpa

56 %

8.0 km/h aus 116

27.4 km/h aus S

8.8 C

17.0 C

17.7 C

17.0 C

122 W/m

0.00 mm

19:40

17.6 C

1011.2 hpa

57 %

12.9 km/h aus 116

30.6 km/h aus NW

9.0 C

16.5 C

17.2 C

16.9 C

86 W/m

0.00 mm

19:45

17.5 C

1011.2 hpa

57 %

8.0 km/h aus 117

24.1 km/h aus WNW

8.9 C

16.8 C

17.5 C

16.8 C

49 W/m

0.00 mm

19:50

17.4 C

1011.2 hpa

58 %

8.0 km/h aus 114

24.1 km/h aus NW

9.0 C

16.7 C

17.4 C

16.7 C

40 W/m

0.00 mm

19:55

17.3 C

1011.2 hpa

58 %

11.3 km/h aus 116

24.1 km/h aus NW

8.9 C

16.6 C

17.2 C

16.6 C

38 W/m

0.00 mm

20:00

17.2 C

1011.3 hpa

59 %

8.0 km/h aus 117

24.1 km/h aus WNW

9.1 C

16.5 C

17.2 C

16.5 C

36 W/m

0.00 mm

20:05

17.1 C

1011.3 hpa

59 %

9.7 km/h aus 116

22.5 km/h aus S

9.0 C

16.4 C

17.1 C

16.4 C

35 W/m

0.00 mm

20:10

16.9 C

1011.3 hpa

60 %

11.3 km/h aus 116

24.1 km/h aus NW

9.1 C

16.1 C

16.8 C

16.2 C

33 W/m

0.00 mm

20:15

16.8 C

1011.6 hpa

61 %

9.7 km/h aus 114

24.1 km/h aus NW

9.2 C

16.2 C

16.8 C

16.2 C

32 W/m

0.00 mm

20:20

16.7 C

1011.6 hpa

62 %

9.7 km/h aus 116

22.5 km/h aus WNW

9.3 C

16.1 C

16.7 C

16.1 C

31 W/m

0.00 mm

20:25

16.6 C

1011.6 hpa

62 %

4.8 km/h aus 117

17.7 km/h aus S

9.2 C

16.0 C

16.6 C

16.0 C

30 W/m

0.00 mm

20:30

16.4 C

1011.6 hpa

62 %

4.8 km/h aus 117

16.1 km/h aus WNW

9.1 C

15.9 C

16.4 C

15.9 C

30 W/m

0.00 mm

20:35

16.3 C

1011.6 hpa

63 %

6.4 km/h aus 114

16.1 km/h aus NW

9.3 C

15.8 C

16.3 C

15.8 C

31 W/m

0.00 mm

20:40

16.3 C

1011.6 hpa

63 %

6.4 km/h aus 115

16.1 km/h aus NW

9.2 C

15.8 C

16.3 C

15.8 C

34 W/m

0.00 mm

20:45

16.2 C

1011.7 hpa

63 %

4.8 km/h aus 117

20.9 km/h aus WNW

9.2 C

15.7 C

16.2 C

15.7 C

29 W/m

0.00 mm

20:50

16.1 C

1011.7 hpa

63 %

4.8 km/h aus 117

20.9 km/h aus WNW

9.1 C

15.6 C

16.1 C

15.6 C

22 W/m

0.00 mm

20:55

16.0 C

1011.7 hpa

63 %

4.8 km/h aus 117

17.7 km/h aus WNW

9.0 C

15.4 C

16.0 C

15.4 C

19 W/m

0.00 mm

21:00

15.9 C

1011.7 hpa

63 %

4.8 km/h aus 113

16.1 km/h aus NW

8.9 C

15.4 C

15.9 C

15.4 C

18 W/m

0.00 mm

21:05

15.8 C

1011.7 hpa

64 %

3.2 km/h aus 116

8.0 km/h aus WNW

9.0 C

15.3 C

15.8 C

15.3 C

16 W/m

0.00 mm

21:10

15.7 C

1011.7 hpa

64 %

4.8 km/h aus 116

11.3 km/h aus S

8.9 C

15.2 C

15.7 C

15.2 C

16 W/m

0.00 mm

21:15

15.6 C

1011.7 hpa

64 %

4.8 km/h aus 116

9.7 km/h aus W

8.8 C

15.1 C

15.6 C

15.1 C

14 W/m

0.00 mm

21:20

15.6 C

1011.7 hpa

64 %

8.0 km/h aus 116

17.7 km/h aus S

8.8 C

15.0 C

15.6 C

15.0 C

13 W/m

0.00 mm

21:25

15.4 C

1011.7 hpa

64 %

1.6 km/h aus 114

11.3 km/h aus NW

8.7 C

14.9 C

15.4 C

14.9 C

11 W/m

0.00 mm

21:30

15.4 C

1011.8 hpa

64 %

0.0 km/h aus 116

6.4 km/h aus NW

8.6 C

14.8 C

15.4 C

14.8 C

8 W/m

0.00 mm

21:35

15.3 C

1011.8 hpa

65 %

1.6 km/h aus 117

8.0 km/h aus WNW

8.8 C

14.8 C

15.3 C

14.8 C

6 W/m

0.00 mm

21:40

15.3 C

1011.8 hpa

66 %

0.0 km/h aus 116

4.8 km/h aus NW

9.0 C

14.8 C

15.3 C

14.8 C

5 W/m

0.00 mm

21:45

15.2 C

1012.1 hpa

66 %

0.0 km/h aus 116

4.8 km/h aus WNW

8.9 C

14.7 C

15.2 C

14.7 C

0 W/m

0.00 mm

21:50

15.1 C

1012.1 hpa

67 %

0.0 km/h aus 115

6.4 km/h aus WNW

9.0 C

14.6 C

15.1 C

14.6 C

0 W/m

0.00 mm

21:55

14.9 C

1012.1 hpa

68 %

0.0 km/h aus 117

0.0 km/h aus ---

9.1 C

14.5 C

14.9 C

14.5 C

0 W/m

0.00 mm

22:00

14.8 C

1012.2 hpa

68 %

0.0 km/h aus 117

0.0 km/h aus ---

9.0 C

14.4 C

14.8 C

14.4 C

0 W/m

0.00 mm

22:05

14.8 C

1012.2 hpa

69 %

0.0 km/h aus 117

0.0 km/h aus ---

9.1 C

14.3 C

14.8 C

14.3 C

0 W/m

0.00 mm

22:10

14.7 C

1012.2 hpa

69 %

0.0 km/h aus 116

0.0 km/h aus ---

9.0 C

14.2 C

14.7 C

14.2 C

0 W/m

0.00 mm

22:15

14.6 C

1012.3 hpa

69 %

0.0 km/h aus 114

0.0 km/h aus ---

8.9 C

14.1 C

14.6 C

14.1 C

0 W/m

0.00 mm

22:20

14.4 C

1012.3 hpa

69 %

0.0 km/h aus 116

0.0 km/h aus ---

8.8 C

14.0 C

14.4 C

14.0 C

0 W/m

0.00 mm

22:25

14.3 C

1012.3 hpa

69 %

0.0 km/h aus 117

0.0 km/h aus ---

8.7 C

13.8 C

14.3 C

13.8 C

0 W/m

0.00 mm

22:30

14.2 C

1012.3 hpa

69 %

0.0 km/h aus 116

0.0 km/h aus ---

8.6 C

13.7 C

14.2 C

13.7 C

0 W/m

0.00 mm

22:35

14.0 C

1012.3 hpa

69 %

0.0 km/h aus 115

0.0 km/h aus ---

8.4 C

13.6 C

14.0 C

13.6 C

0 W/m

0.00 mm

22:40

13.8 C

1012.3 hpa

69 %

0.0 km/h aus 115

0.0 km/h aus ---

8.2 C

13.4 C

13.8 C

13.4 C

0 W/m

0.00 mm

22:45

13.7 C

1012.4 hpa

69 %

0.0 km/h aus 117

0.0 km/h aus ---

8.1 C

13.3 C

13.7 C

13.3 C

0 W/m

0.00 mm

22:50

13.6 C

1012.4 hpa

70 %

0.0 km/h aus 117

0.0 km/h aus ---

8.2 C

13.2 C

13.6 C

13.2 C

0 W/m

0.00 mm

22:55

13.4 C

1012.4 hpa

71 %

1.6 km/h aus 116

8.0 km/h aus W

8.3 C

13.0 C

13.4 C

13.0 C

0 W/m

0.00 mm

23:00

13.3 C

1012.5 hpa

71 %

0.0 km/h aus 113

4.8 km/h aus W

8.2 C

12.9 C

13.3 C

12.9 C

0 W/m

0.00 mm

23:05

13.2 C

1012.5 hpa

72 %

0.0 km/h aus 113

3.2 km/h aus W

8.2 C

12.8 C

13.2 C

12.8 C

0 W/m

0.00 mm

23:10

13.1 C

1012.5 hpa

73 %

1.6 km/h aus 116

4.8 km/h aus WNW

8.4 C

12.7 C

13.1 C

12.7 C

0 W/m

0.00 mm

23:15

13.1 C

1012.5 hpa

74 %

1.6 km/h aus 118

4.8 km/h aus WNW

8.5 C

12.7 C

13.1 C

12.7 C

0 W/m

0.00 mm

23:20

13.0 C

1012.5 hpa

74 %

1.6 km/h aus 117

6.4 km/h aus S

8.5 C

12.7 C

13.0 C

12.7 C

0 W/m

0.00 mm

23:25

13.0 C

1012.5 hpa

74 %

3.2 km/h aus 115

8.0 km/h aus WNW

8.5 C

12.7 C

13.0 C

12.7 C

0 W/m

0.00 mm

23:30

12.9 C

1012.5 hpa

75 %

1.6 km/h aus 115

6.4 km/h aus W

8.6 C

12.7 C

12.9 C

12.7 C

0 W/m

0.00 mm

23:35

12.9 C

1012.5 hpa

75 %

3.2 km/h aus 116

9.7 km/h aus WNW

8.6 C

12.7 C

12.9 C

12.7 C

0 W/m

0.00 mm

23:40

12.9 C

1012.5 hpa

75 %

6.4 km/h aus 115

16.1 km/h aus WNW

8.6 C

12.5 C

12.8 C

12.7 C

0 W/m

0.00 mm

23:45

13.0 C

1012.7 hpa

75 %

4.8 km/h aus 117

11.3 km/h aus WNW

8.7 C

12.7 C

13.0 C

12.7 C

0 W/m

0.00 mm

23:50

13.0 C

1012.7 hpa

75 %

4.8 km/h aus 116

14.5 km/h aus WNW

8.7 C

12.7 C

13.0 C

12.7 C

0 W/m

0.00 mm

23:55

12.9 C

1012.7 hpa

75 %

3.2 km/h aus 114

8.0 km/h aus W

8.6 C

12.7 C

12.9 C

12.7 C

0 W/m

0.00 mm